Location: Armagh
(54.3500°N, 6.6670°W)
Time: 21:45:52
(UTC+00:00)

ISS - Pass Details

Date: 11 December 2017
Orbit: 402 x 407 km, 51.6° (Epoch: 18 January)

Event Time Altitude Azimuth Distance (km) Brightness Sun altitude
Rises 16:54:53 0° 266° (W) 2,341 1.3 -7.1°
Reaches altitude 10° 16:57:00 10° 262° (W) 1,478 0.3 -7.3°
Maximum altitude 17:00:15 52° 185° (S) 517 -3.1 -7.8°
Drops below altitude 10° 17:03:28 10° 108° (ESE) 1,475 -1.4 -8.2°
Enters shadow 17:04:31 - 105° (ESE) 1,901 -0.9 -8.3°
